Date,TemperatureHighF,TemperatureAvgF,TemperatureLowF,DewpointHighF,DewpointAvgF,DewpointLowF,HumidityHigh,HumidityAvg,HumidityLow,PressureMaxIn,PressureMinIn,WindSpeedMaxMPH,WindSpeedAvgMPH,GustSpeedMaxMPH,PrecipitationSumIn
2013-9-1,74.8,66.4,58.1,63.1,59.3,55.0,96,79,55,30.00,29.76,12,1,13,0.01
2013-9-2,62.2,57.8,53.2,59.2,54.7,52.3,97,90,80,30.06,29.83,12,2,14,0.64
2013-9-3,73.9,62.0,53.4,65.5,58.8,52.3,99,90,71,29.83,29.62,8,0,9,0.12
2013-9-4,72.7,59.6,43.3,58.8,52.7,41.7,98,80,55,29.84,29.60,20,2,20,0.00
2013-9-5,58.3,48.2,38.7,43.7,39.2,33.1,96,74,41,30.04,29.84,14,1,15,0.00
2013-9-6,66.4,51.4,34.5,45.0,39.2,33.4,97,67,35,30.06,29.85,15,2,16,0.00
2013-9-7,66.4,59.4,52.2,57.9,52.6,44.8,97,78,67,29.85,29.65,16,2,20,0.07
2013-9-8,58.6,50.5,39.2,58.1,44.9,37.6,98,82,53,29.91,29.63,22,3,22,0.17
2013-9-9,68.2,52.6,36.1,46.2,40.6,35.4,98,68,35,30.03,29.87,18,2,18,0.01
2013-9-10,70.9,59.3,50.7,56.7,51.5,45.7,95,76,51,30.03,29.94,9,1,11,0.02
2013-9-11,76.1,64.7,57.6,72.7,63.4,56.3,99,96,81,29.98,29.78,8,0,9,0.34
2013-9-12,68.4,63.9,59.2,68.0,63.5,58.8,100,99,96,29.85,29.55,5,0,6,0.32
2013-9-13,63.0,61.1,57.6,62.8,57.9,53.2,100,89,79,29.75,29.53,14,2,15,0.01
2013-9-14,57.6,49.7,44.8,53.8,47.9,44.1,98,93,86,29.92,29.72,11,2,13,0.30
2013-9-15,63.9,54.4,44.1,54.1,49.1,43.5,100,84,57,29.96,29.85,13,1,14,0.01
2013-9-16,55.2,46.1,38.1,53.1,39.5,32.0,96,79,57,30.18,29.86,19,3,19,0.24
2013-9-17,63.7,48.1,31.6,44.8,38.7,30.6,98,73,40,30.29,30.14,12,1,14,0.00
2013-9-18,71.2,53.2,38.5,48.0,42.8,37.4,97,72,31,30.14,29.96,12,1,15,0.00
2013-9-19,74.7,57.0,41.7,56.5,49.0,41.0,98,78,38,30.02,29.92,12,1,13,0.00
2013-9-20,64.6,58.2,52.3,58.6,54.8,50.9,96,89,79,30.07,29.96,12,1,16,0.00
2013-9-21,73.0,62.6,55.2,56.8,52.9,48.2,92,73,42,29.97,29.65,20,4,24,0.00
2013-9-22,67.6,60.0,48.7,62.2,56.6,43.9,97,89,75,29.68,29.48,17,2,21,0.69
2013-9-23,48.6,45.6,43.3,44.2,42.9,41.5,95,90,84,29.78,29.66,14,4,21,0.55
2013-9-24,51.4,46.8,42.4,46.2,43.6,40.6,94,89,81,29.84,29.72,14,4,20,0.07
2013-9-25,54.3,49.0,45.0,47.7,45.0,42.4,93,86,76,29.96,29.83,16,3,16,0.02
2013-9-26,57.0,51.7,45.0,50.9,48.0,43.3,96,87,78,30.14,29.96,11,2,12,0.00
2013-9-27,68.5,54.6,43.7,54.3,48.3,42.4,98,82,51,30.25,30.13,12,1,14,0.00
2013-9-28,75.6,54.7,41.2,56.5,48.3,40.3,99,83,44,30.31,30.18,10,1,10,0.00
2013-9-29,76.5,55.1,39.9,55.0,47.2,39.4,99,79,36,30.18,30.03,8,1,9,0.01
2013-9-30,75.2,53.6,41.5,54.7,46.9,40.5,99,82,43,30.08,29.95,9,0,13,0.00